Location: Kott?ru
(16.6209°N, 80.6208°E)
Time: 20:21:40
(UTC+00:00)

Cosmos 1727 Rocket - Pass Details

Date: 18 September 2020
Orbit: 960 x 997 km, 82.9° (Epoch: 27 October)

Event Time Altitude Azimuth Distance (km) Brightness Sun altitude
Exits shadow 22:35:53 - 183° (S) 3,206 6.6 -27.1°
Reaches altitude 10° 22:37:06 10° 183° (S) 2,753 6.2 -26.8°
Maximum altitude 22:43:26 89° 269° (W) 1,000 3.9 -25.3°
Drops below altitude 10° 22:49:48 10° 4° (N) 2,758 6.5 -23.8°
Sets 22:52:19 0° 4° (N) 3,706 7.2 -23.2°
